Location: ???????
(54.9567°N, 38.2836°E)
Time: 12:23:48
(UTC+00:00)

COBE Rocket - Pass Details

Date: 14 April 2024
Orbit: 677 x 778 km, 97.1° (Epoch: 26 May)

Event Time Altitude Azimuth Distance (km) Brightness Sun altitude
Rises 00:31:02 0° 10° (N) 3,103 8.0 -15.0°
Reaches altitude 10° 00:33:24 10° 3° (N) 2,167 7.0 -14.7°
Maximum altitude 00:37:51 43° 293° (WNW) 972 4.3 -14.2°
Enters shadow 00:40:28 22° 234° (SW) 1,487 4.9 -14.0°
